This is the latest recevied weather packets stored in our database for station/object DB0OVP-13. If no packets are shown the sender has not sent any weather packets the latest 1 day(s).
| Time | Temp. | Humidity | Pressure | Rain* | Wind** | Luminosity | Snow |
|---|---|---|---|---|---|---|---|
| 1836274384 | 14.44° C | 100% | 0 hPa | 0 mm | 2.68 m/s, 243° | - | - |
| 1836274234 | 14.44° C | 100% | 0 hPa | 0 mm | 1.34 m/s, 271° | - | - |
| 1778023857 | 8.89° C | 100% | 0 hPa | 0 mm | 2.24 m/s, 35° | - | - |
| 1778022957 | 9.44° C | 100% | 0 hPa | 0 mm | 0.45 m/s, 59° | - | - |
| 1778022057 | 9.44° C | 100% | 0 hPa | 0 mm | 1.79 m/s, 60° | - | - |
| 1778021157 | 9.44° C | 100% | 0 hPa | 0 mm | 1.34 m/s, 56° | - | - |
| 1778020257 | 9.44° C | 100% | 0 hPa | 0 mm | 0.45 m/s, 22° | - | - |
| 1778019357 | 9.44° C | 100% | 0 hPa | 0 mm | 1.79 m/s, 43° | - | - |
| 1778018457 | 9.44° C | 100% | 0 hPa | 0 mm | 2.24 m/s, 81° | - | - |
| 1778017557 | 9.44° C | 100% | 0 hPa | 0 mm | 1.79 m/s, 29° | - | - |
| 1778016657 | 9.44° C | 100% | 0 hPa | 0 mm | 1.79 m/s, 33° | - | - |
| 1778015757 | 9.44° C | 100% | 0 hPa | 0 mm | 2.24 m/s, 9° | - | - |
| 1778014857 | 8.89° C | 100% | 0 hPa | 0 mm | 2.24 m/s, 59° | - | - |
| 1778013957 | 9.44° C | 100% | 0 hPa | 0 mm | 1.34 m/s, 67° | - | - |
| 1778013057 | 9.44° C | 100% | 0 hPa | 0 mm | 0.45 m/s, 26° | - | - |
| 1778012157 | 9.44° C | 100% | 0 hPa | 0 mm | 0.89 m/s, 56° | - | - |
| 1778011257 | 9.44° C | 100% | 0 hPa | 0 mm | 0.89 m/s, 63° | - | - |
| 1778010357 | 9.44° C | 100% | 0 hPa | 0 mm | 1.34 m/s, 80° | - | - |
| 1778009457 | 10° C | 100% | 0 hPa | 0 mm | 0 m/s | - | - |
| 1778008557 | 10.56° C | 100% | 0 hPa | 0 mm | 0.89 m/s, 135° | - | - |
| 1778007657 | 10.56° C | 100% | 0 hPa | 0 mm | 0.45 m/s, 97° | - | - |
| 1778006758 | 11.11° C | 100% | 0 hPa | 0 mm | 0.45 m/s, 18° | - | - |
| 1778005858 | 11.11° C | 100% | 0 hPa | 0 mm | 0 m/s | - | - |
| 1778004958 | 11.11° C | 100% | 0 hPa | 0 mm | 0.45 m/s, 74° | - | - |
| 1778004058 | 11.11° C | 100% | 0 hPa | 0 mm | 0.89 m/s, 32° | - | - |
* Rain latest hour (hover to see other rain measurements)
** Current wind speed in m/s (hover to see current wind gust speed)